TimeCST,TemperatureF,Dew PointF,Humidity,Sea Level PressureIn,VisibilityMPH,Wind Direction,Wind SpeedMPH,Gust SpeedMPH,PrecipitationIn,Events,Conditions,WindDirDegrees,DateUTC
12:52 AM,19.0,10.9,71,30.24,9.0,NE,16.1,-,0.00,Snow,Light Snow,40,2014-01-02 06:52:00
1:52 AM,19.0,10.9,71,30.24,9.0,NE,15.0,-,0.00,Snow,Light Snow,40,2014-01-02 07:52:00
2:52 AM,18.0,10.9,74,30.24,6.0,NE,18.4,-,0.00,Snow,Light Snow,40,2014-01-02 08:52:00
3:33 AM,18.0,10.9,74,30.19,4.0,NE,18.4,-,0.00,Snow,Light Snow,40,2014-01-02 09:33:00
3:52 AM,18.0,10.0,71,30.23,7.0,NE,17.3,-,0.00,Snow,Light Snow,40,2014-01-02 09:52:00
4:52 AM,18.0,10.0,71,30.22,6.0,NE,19.6,-,0.00,Snow,Light Snow,50,2014-01-02 10:52:00
5:05 AM,18.0,10.9,74,30.18,4.0,NE,19.6,-,0.00,Snow,Light Snow,50,2014-01-02 11:05:00
5:52 AM,18.0,10.0,71,30.23,3.0,NE,17.3,-,0.00,Snow,Light Snow,50,2014-01-02 11:52:00
6:52 AM,12.9,9.0,84,30.25,3.0,North,8.1,-,0.00,Snow,Light Snow,350,2014-01-02 12:52:00
7:09 AM,12.0,8.1,84,30.20,2.5,North,8.1,-,0.00,Snow,Light Snow,350,2014-01-02 13:09:00
7:35 AM,12.0,8.1,84,30.22,2.0,North,8.1,-,0.01,Snow,Light Snow,350,2014-01-02 13:35:00
7:50 AM,10.4,6.8,85,30.22,1.2,North,8.1,-,0.01,Snow,Light Snow,350,2014-01-02 13:50:00
7:52 AM,12.0,7.0,80,30.27,1.5,North,11.5,-,0.01,Snow,Light Snow,350,2014-01-02 13:52:00
8:04 AM,10.9,7.0,84,30.22,1.0,North,11.5,-,0.00,Snow,Light Snow,350,2014-01-02 14:04:00
8:17 AM,10.9,8.1,88,30.23,0.8,North,11.5,-,0.00,Snow,Light Snow,350,2014-01-02 14:17:00
8:52 AM,10.9,7.0,84,30.29,0.8,North,13.8,-,0.01,Snow,Light Snow,350,2014-01-02 14:52:00
9:52 AM,10.9,7.0,84,30.30,0.8,North,13.8,-,0.02,Snow,Light Snow,350,2014-01-02 15:52:00
10:18 AM,10.9,7.0,84,30.26,1.5,North,13.8,-,0.01,Snow,Light Snow,350,2014-01-02 16:18:00
10:31 AM,12.0,7.0,80,30.25,1.5,North,13.8,-,0.01,Snow,Light Snow,350,2014-01-02 16:31:00
10:52 AM,12.0,7.0,80,30.30,2.0,North,12.7,-,0.01,Snow,Light Snow,350,2014-01-02 16:52:00
11:52 AM,12.9,7.0,77,30.29,2.0,North,12.7,-,0.00,Snow,Light Snow,350,2014-01-02 17:52:00
11:59 AM,12.9,7.0,77,30.24,8.0,North,15.0,-,N/A,,Mostly Cloudy,360,2014-01-02 17:59:00
12:52 PM,16.0,7.0,68,30.28,10.0,NNW,13.8,-,N/A,,Mostly Cloudy,340,2014-01-02 18:52:00
1:52 PM,17.1,7.0,65,30.28,10.0,North,15.0,20.7,N/A,,Scattered Clouds,350,2014-01-02 19:52:00
2:52 PM,16.0,3.0,57,30.31,10.0,NNW,10.4,-,N/A,,Partly Cloudy,340,2014-01-02 20:52:00
3:52 PM,12.9,1.0,59,30.35,10.0,NNW,13.8,-,N/A,,Partly Cloudy,330,2014-01-02 21:52:00
4:52 PM,9.0,-0.9,64,30.38,10.0,NW,13.8,-,N/A,,Scattered Clouds,320,2014-01-02 22:52:00
5:52 PM,7.0,-2.9,64,30.40,10.0,NNW,10.4,-,N/A,,Partly Cloudy,330,2014-01-02 23:52:00
6:52 PM,7.0,-4.0,61,30.41,10.0,NW,11.5,-,N/A,,Partly Cloudy,320,2014-01-03 00:52:00
7:52 PM,6.1,-5.1,60,30.42,10.0,NW,9.2,-,N/A,,Partly Cloudy,320,2014-01-03 01:52:00
8:52 PM,6.1,-6.0,58,30.43,10.0,NW,10.4,-,N/A,,Partly Cloudy,320,2014-01-03 02:52:00
9:52 PM,5.0,-7.1,58,30.43,10.0,NW,6.9,-,N/A,,Clear,310,2014-01-03 03:52:00
10:52 PM,3.9,-6.0,64,30.43,10.0,WNW,5.8,-,N/A,,Clear,300,2014-01-03 04:52:00
11:52 PM,3.0,-7.1,63,30.43,10.0,WNW,6.9,-,N/A,,Clear,300,2014-01-03 05:52:00